Regional Weather Roundup
Issued by NWS Boston, MA

Home | Current Version | Previous Version | Text Only | Print | Product List | Glossary On
Versions: 1 2 3 4 5 6 7 8 9 10 11 12 13 14 15 16 17 18 19 20 21 22 23 24 25 26 27
000
ASUS41 KBOX 110010
RWRBOX

REGIONAL WEATHER ROUNDUP
NATIONAL WEATHER SERVICE TAUNTON MA
700 PM EST SAT DEC 10 2016

NOTE:  "FAIR" INDICATES FEW OR NO CLOUDS BELOW 12,000 FEET WITH NO
SIGNIFICANT WEATHER AND/OR OBSTRUCTIONS TO VISIBILITY.

MAZALL-110100-
EASTERN MASSACHUSETTS

CITY           SKY/WX    TMP DP  RH WIND       PRES   REMARKS
BOSTON         CLEAR     25   5  42 NW10      30.38R WCI  15
6HR MIN TEMP:  25; 6HR MAX TEMP:  29;

BEVERLY        CLEAR     22   6  50 N8        30.37R WCI  12
LAWRENCE       CLEAR     22   6  50 NW5       30.40R WCI  16
BEDFORD        CLEAR     20   3  48 NW5       30.36R WCI  13
BLUE HILL        N/A     20   4  50 NW9       30.32R WCI   9
NORWOOD        CLEAR     24   5  44 NW3       30.37R
MARSHFIELD     CLEAR     25   7  46 VRB5G12   30.37R WCI  19
PLYMOUTH       CLEAR     19   7  59 CALM      30.37R
TAUNTON        CLEAR     16   8  71 CALM      30.37R
NEW BEDFORD    CLEAR     25   8  48 VRB5      30.36R WCI  19
$$

MAZALL-110100-
CAPE COD AND THE ISLANDS

CITY           SKY/WX    TMP DP  RH WIND       PRES   REMARKS
FALMOUTH         N/A     21   5  49 MISG      30.36R
HYANNIS        CLEAR     25   5  42 W6        30.35R WCI  18
CHATHAM        CLEAR     29   8  41 VRB6G20   30.35R WCI  23
PROVINCETOWN   CLOUDY    29  12  49 NW18G29   30.36R WCI  16
NANTUCKET      CLEAR     29   9  43 NW14G25   30.35R WCI  18
MARTHAS VNYRD  CLEAR     29  10  45 NW12G23   30.36R WCI  19
$$

MAZALL-110100-
CENTRAL AND WESTERN MASSACHUSETTS

CITY           SKY/WX    TMP DP  RH WIND       PRES   REMARKS
WORCESTER      CLEAR     20   3  48 CALM      30.31R
6HR MIN TEMP:  20; 6HR MAX TEMP:  26;

FITCHBURG      CLEAR     20   7  57 CALM      30.37R
ORANGE         CLEAR     17   7  64 CALM      30.34R
SPRINGFIELD    CLEAR     21   8  57 W5        30.36R WCI  14
WESTFIELD      CLEAR     19  11  70 CALM      30.37R
NORTH ADAMS    MOCLDY    21   9  59 SW6       30.35R WCI  13
PITTSFIELD     CLEAR     19  10  68 W8        30.30R WCI   9
$$

RIZALL-110100-
RHODE ISLAND

CITY           SKY/WX    TMP DP  RH WIND       PRES   REMARKS
PROVIDENCE     CLEAR     27   7  42 W7        30.38R WCI  19
6HR MIN TEMP:  27; 6HR MAX TEMP:  32;

NEWPORT        CLEAR     28  10  46 NW9       30.37R WCI  19
BLOCK ISLAND   CLEAR     30  15  53 NW12G18   30.39R WCI  20
SMITHFIELD     CLEAR     22   8  55 W5        30.36R WCI  16
WESTERLY       CLEAR     28   9  44 CALM      30.40R
$$

CTZALL-110100-
CONNECTICUT

CITY           SKY/WX    TMP DP  RH WIND       PRES   REMARKS
BRADLEY INTL   CLEAR     25   9  50 CALM      30.38R
6HR MIN TEMP:  25; 6HR MAX TEMP:  33;

HARTFORD       CLEAR     27  12  53 W3        30.40R
BRIDGEPORT     CLEAR     30  16  56 W5        30.41R WCI  25
DANBURY        CLEAR     23  15  71 SW3       30.39R
GROTON         CLEAR     30  12  47 NW5       30.40R WCI  25
NEW HAVEN      PTCLDY    29  15  56 N3        30.40R
CHESTER        FAIR      25  10  54 CALM      30.38R
MERIDEN        CLEAR     22  13  68 CALM      30.40R
WILLIMANTIC    CLEAR     26  11  52 CALM      30.39R
OXFORD         PTCLDY    25  10  54 CALM      30.37R
$$

MEZ002-015-021-024-NHZ003-005-008-011-012-014-VTZ005-008-110100-
NORTHERN NEW ENGLAND

CITY           SKY/WX    TMP DP  RH WIND       PRES   REMARKS
PORTLAND ME    CLEAR     17   5  59 W6        30.36R WCI   9
6HR MIN TEMP:  16; 6HR MAX TEMP:  27;

BANGOR ME      MOCLDY    16   2  54 W7        30.28R WCI   6
CONCORD NH     CLEAR     16   3  56 CALM      30.36R
MANCHESTER NH  CLEAR     21   3  45 N6        30.35R WCI  13
NASHUA NH      CLEAR     18   7  62 CALM      30.38R
PORTSMOUTH NH  CLEAR     20   4  49 NW7       30.36R WCI  11
JAFFREY NH     CLEAR     11   5  77 CALM      30.31R
KEENE NH       PTCLDY    15   8  73 CALM      30.36R
BURLINGTON VT  MOCLDY    20  16  84 E3        30.36S
MT. WASHINGTON FOG       -9  -9 100 NW41        N/A  VSB 0   WCI -42
$$

NYZ052-076-110100-
EASTERN NEW YORK

CITY           SKY/WX    TMP DP  RH WIND       PRES   REMARKS
ALBANY         PTCLDY    19  12  74 SW5       30.39R WCI  12
6HR MIN TEMP:  19; 6HR MAX TEMP:  29;

NEW YORK CITY  PTCLDY    35  20  54 W14       30.42R WCI  26
6HR MIN TEMP:  35; 6HR MAX TEMP:  37;

$$

ANZALL-110100-
MARINE OBSERVATIONS

STATION/POSITION TIME  TEMP    WIND        PRES    VSBY  WAVE
                       AIR SEA DIR/SP/G                  HT/PER
                 (UTC) (F)     (DEG/KT/KT) (MB)    (MI)  (FT/S)
BOSTON BUOY      2350   28 49  330/ 17/ 23 1027.4R         3/ 4
BUZZARDS BAY     2300   31     300/ 20/ 22 1028.4R
NANTUCKET SOUND  NOT AVBL
MASS BAY-STELLWA 2304   28 48  330/ 19/ 25 1027.1R  1 7/8  2/ 3
ISLE OF SHOALS   2300   24     310/ 20/ 23 1027.2R
S OF BLOCK IS    2355      54                N/A           5/ 6
$$

......................KEY.........................
  SKY/WX - SKY CONDITION/PRESENT WEATHER
  TMP    - TEMPERATURE IN FAHRENHEIT
  DWPT   - DEWPOINT IN FAHRENHEIT
  RH     - RELATIVE HUMIDITY IN PERCENT
  WIND   - DIRECTION AND SPEED IN MPH
  PRES   - MEAN SEA LEVEL PRESSURE IN INCHES OF HG
  WCI    - WIND CHILL INDEX
  VSB    - VISIBILITY IN MILES
  HX     - HEAT INDEX
  TC     - TEMPERATURE IN CELSIUS
  VRB    - VARIABLE WIND DIRECTION
  N/A    - NOT AVAILABLE




USA.gov is the U.S. government's official web portal to all federal, state and local government web resources and services.